STARLINK-1320, 45572

Orbit data source: Space-Track

STARLINK-1320, 45572 is a payload satellite owned by SpaceX/Seattle (US) in LEO that was launched on Wed, 22 Apr 2020 UTC via an FALCON 9 launch vehicle from the Air Force Eastern Test Range (AFETR). Payload-class satellites include a variety of spacecraft equipped with specific instruments for various scientific and technological missions. These include communications satellites like Starlink; space stations such as the ISS; scientific satellites like the Hubble; Earth observation satellites from companies like Planet Labs, Umbra, and HawkEye 360; GPS; miniature CubeSats for education and research; and military/defense satellites.

Loading next visibility...
Identifier
45572, 2020-025AT
Orbit
LEO
Country
Flag of USUS
Related business
Manufacturer
SpaceX/Seattle
Mission
Partially operational Commercial Communications
Bus & Motor
STARLINK, Unknown motor
Mass
260 kg wet, ~248 kg dry
Launch date (UTC)
2020-04-22 (5 years ago)
Launch vehicle
FALCON 9
Launch site
Air Force Eastern Test Range (AFETR)
Object type
Payload
Rocket body
Debris
Shape & HBR
Box + 1 Pan, 10.1 m
Radar Cross Section
13.562 m², Large (>1 m²)

Expand to show TLE details & history
Last TLE update: 19 hours ago

TLE from 19 hours ago
0 STARLINK-1320
1 45572U 20025AT  25287.53351938  .00055233  00000-0  13755-2 0  9994
2 45572  53.0587 330.2257 0008923 303.3849  56.6301 15.39699193304099
Epoch: 2025-10-14T12:48Z
TLE epoch observation values (Epoch: 2025-10-14T12:48:16.074Z)
Latitude
0.00004°
Longitude
114.83818°
Altitude
444.545 km
Speed
7.648 km/s
True Right ascension
22h 00m 54s
True Declination
0° 00' 00"
Sunlit
Object was in full shadow at epoch
Visualization orbit readout
Latitude
Unknown
Longitude
Unknown
Altitude
Unknown
Speed
Unknown
Apparent Right ascension
Unknown
Apparent Declination
Unknown
Sunlit
N/A
Visualization observer readout
Local Sidereal Time
02:17:27
Azimuth
Unknown
Elevation
Unknown
Doppler factor
Unknown
Orbital elements
Apogee altitude
453.362 km
Perigee altitude
441.182 km
Semi-major axis
6,825.409 km
Eccentricity
0.00089
Inclination
53.0587°
RAAN
330.2257°
Arg. of periapsis
303.3849°
True anomaly
56.71555°
Mean anomaly
56.6301°
Eccentric anomaly
56.67282°
Mean motion
3.84902 °/min
Orbital period
93.53 mins
BSTAR
0.0013755
Loading maneuver chart data...
Computing Atmospheric mass density...

Documentation

Showing up to 5 results
|